CZ-2D DEB, 44611

Orbit data source: Space-Track

CZ-2D DEB, 44611 is space debris in SSO originally from a launch on Mon, 09 Oct 2017 UTC launched from the Jiuquan Satellite Launch Center, China (JSC). Debris objects in space refer to the collection of defunct objects orbiting the Earth. Examples of debris include non-operational satellites, rocket bodies, and fragments generated from explosions, collisions, or faulty payload assembly.

Loading next visibility...
Identifier
44611, 2017-060D
Orbit
SSO
Country
Flag of CNCN / PRC
Related business
Manufacturer
Unknown
Mission
Spacecraft
Bus & Motor
Unknown
Mass
Unknown
Launch date (UTC)
2017-10-09 (8 years ago)
Launch vehicle
Unknown
Launch site
Jiuquan Satellite Launch Center, China (JSC)
Object type
Payload
Rocket body
Debris
Shape & HBR
Unknown shape, 0.1 m
Radar Cross Section
Small (<0.1 m²)

Expand to show TLE details & history
Last TLE update: 11 hours ago

TLE from 11 hours ago
0 CZ-2D DEB
1 44611U 17060D   26095.36340599  .00007161  00000-0  65348-3 0  9995
2 44611  98.2198 248.6880 0027578 358.7706   1.3440 14.95127664456266
Epoch: 2026-04-05T08:43Z
TLE epoch observation values (Epoch: 2026-04-05T08:43:18.277Z)
Latitude
-0.00011°
Longitude
-75.80804°
Altitude
565.815 km
Speed
7.589 km/s
True Right ascension
16h 34m 45s
True Declination
0° 00' 00"
Sunlit
Object was in full shadow at epoch
Visualization orbit readout
Latitude
Unknown
Longitude
Unknown
Altitude
Unknown
Speed
Unknown
Apparent Right ascension
Unknown
Apparent Declination
Unknown
Sunlit
N/A
Visualization observer readout
Local Sidereal Time
01:09:57
Azimuth
Unknown
Elevation
Unknown
Doppler factor
Unknown
Orbital elements
Apogee altitude
598.198 km
Perigee altitude
559.825 km
Semi-major axis
6,957.149 km
Eccentricity
0.00276
Inclination
98.2198°
RAAN
248.688°
Arg. of periapsis
358.7706°
True anomaly
1.35144°
Mean anomaly
1.344°
Eccentric anomaly
1.34772°
Mean motion
3.74021 °/min
Orbital period
96.25 mins
BSTAR
0.00065348
Loading maneuver chart data...
Computing Atmospheric mass density...
Loading historical data...
Loading historical data...
Loading historical data...
Loading historical data...
Loading historical data...
Loading historical data...
Loading historical data...
Other satellites on launch #60 in the year 2017 (2017-10-09 UTC)

Documentation

Showing up to 5 results
|